Flag for Germany Weather past 2 weeks in Wedel, Schleswig-Holstein, Germany

Now
73 °F

Sunny.


Feels Like: 77 °F
Forecast: 61 / 71 °F
Wind: 15 mph from Northwest

Location: Hamburg-Finkenwerder

Current Time: Jul 30, 2014 at 6:14:37 PM

Latest Report: Jul 30, 2014 at 5:20 PM


Visibility: 10 mi

Pressure: 29.83 "Hg

Humidity: 53%

Dew point: 55 °F

Location of WedelLocation

Historic Weather in Wedel — Graph

°F

Wedel temperature yesterday

Maximum temperature yesterday: 84 °F (at 2:20 PM)
Minimum temperature yesterday: 66 °F (at 5:50 AM)
Average temperature yesterday: 77 °F

Past Weeks' High & Low Weather Summary

 TemperatureHumidityPressure
High86 °F (Jul 18, 3:20 PM)100% (Jul 16, 5:20 AM)30.18 "Hg (Jul 16, 5:20 AM)
Low54 °F (Jul 17, 5:20 AM)37% (Jul 23, 3:50 PM)29.77 "Hg (Jul 29, 3:50 PM)
Average74 °F65%30.00 "Hg
* Reported Jul 15 5:20 PM — Jul 30 5:20 PM, Wedel, Weather by CustomWeather, © 2014

Note: Actual official high and low records may vary slightly from our data, if they occured in-between our weather recording intervals... More about our weather records

Advertising

Wedel weather history for previous 24 hours

 ConditionsComfort  
Time TempWeatherWind HumidityBarometerVisibility
5:20 PM
Jul 30
73 °FSunny.15 mph53%29.83 "Hg10 mi
4:50 PM73 °FScattered clouds.17 mph57%29.83 "HgN/A
4:20 PM73 °FScattered clouds.13 mph61%29.83 "HgN/A
3:50 PM73 °FScattered clouds.15 mph61%29.83 "HgN/A
3:20 PM73 °FScattered clouds.18 mph65%29.83 "HgN/A
2:50 PM75 °FScattered clouds.13 mph54%29.80 "HgN/A
2:20 PM73 °FBroken clouds.13 mph61%29.83 "HgN/A
1:50 PM73 °FBroken clouds.12 mph61%29.83 "HgN/A
1:20 PM73 °FBroken clouds.12 mph61%29.83 "HgN/A
12:50 PM72 °FBroken clouds.12 mph69%29.80 "HgN/A
12:20 PM72 °FBroken clouds.10 mph69%29.80 "HgN/A
11:50 AM70 °FPartly sunny.9 mph73%29.80 "HgN/A
11:20 AM70 °FScattered clouds.9 mph73%29.80 "HgN/A
10:50 AM68 °FPartly sunny.9 mph78%29.80 "HgN/A
10:20 AM68 °FPartly sunny.8 mph78%29.80 "HgN/A
9:50 AM66 °FBroken clouds.9 mph83%29.77 "HgN/A
9:20 AM64 °FPartly sunny.7 mph88%29.77 "HgN/A
8:50 AM64 °FPartly sunny.7 mph83%29.77 "HgN/A
8:20 AM64 °FPassing clouds.7 mph83%29.77 "HgN/A
7:50 AM64 °FPassing clouds.7 mph83%29.77 "HgN/A
7:20 AM64 °FPassing clouds.7 mph83%29.77 "HgN/A
6:50 AM66 °FPassing clouds.7 mph78%29.77 "HgN/A
6:20 AM66 °FPassing clouds.6 mph78%29.77 "HgN/A
5:50 AM66 °FPartly cloudy.6 mph78%29.77 "HgN/A
7:50 PM
Jul 29
79 °FSunny.10 mph58%29.77 "Hg10 mi
7:20 PM79 °FSunny.9 mph58%29.77 "Hg10 mi
6:50 PM79 °FPassing clouds.10 mph58%29.77 "HgN/A
6:20 PM79 °FPassing clouds.7 mph65%29.77 "HgN/A
Weather by CustomWeather, © 2014

See weather overviewHow to use our weather pages